Weather History for Pasco, WA

Change the Weather History Date:

Monday, December 24, 2012

  Actual Average Record
Temperature  
Mean Temperature 38 °F 32 °F  
Max Temperature 48 °F 39 °F 53 °F (1992)
Min Temperature 28 °F 25 °F 2 °F (1990)
Degree Days  
Heating Degree Days 27 33  
Month to date heating degree days 577 759  
Since 1 July heating degree days 1674 1988  
Cooling Degree Days 0 0  
Month to date cooling degree days 0 0  
Year to date cooling degree days 788 710  
Moisture  
Dew Point 32 °F    
Average Humidity 77    
Maximum Humidity 100    
Minimum Humidity 53    
Precipitation  
Precipitation 0.02 in - 0.30 in (1968)
Month to date precipitation 0.96  
Year to date precipitation 9.52  
Snow  
Snow 0.00 in - - ()
Snow Depth 0.00 in    
Sea Level Pressure  
Sea Level Pressure 30.05 in    
Wind  
Wind Speed 9 mph (SW)    
Max Wind Speed 17 mph    
Max Gust Speed 22 mph    
Visibility 10 miles    
Events Rain    
T = Trace of Precipitation, MM = Missing Value Source: NWS Daily Summary

Daily Weather History Graph

Daily Weather History Graph

Search for Another Location

Airport:

Trip Planner

Search our weather history database for the weather conditions in past years. The results will help you decide how hot, cold, wet, or windy it might be!

Date:

Astronomy

Dec. 24, 2012 Rise Set
Actual Time 7:38 AM PST 4:14 PM PST
Civil Twilight 7:03 AM PST 4:49 PM PST
Nautical Twilight 6:24 AM PST 5:27 PM PST
Astronomical Twilight 5:48 AM PST 6:04 PM PST
Moon 1:49 PM PST (12/24) 4:16 AM PST (12/24)
Length of Visible Light 9h 46m
Length of Day
8h 36m
Waxing Gibbous, 89% of the Moon is Illuminated
Dec 24
Waxing Gibbous
Dec 28
Full
Jan 4
Last Quarter
Jan 11
New
Jan 18
First Quarter

Hourly Weather History & Observations

Time (PST) Temp. Windchill Dew Point Humidity Pressure Visibility Wind Dir Wind Speed Gust Speed Precip Events Conditions
12:53 AM 37.0 °F 28.9 °F 34.0 °F 89% 29.81 in 10.0 mi WSW 12.7 mph - 0.01 in Rain Light Rain
1:53 AM 37.0 °F 31.6 °F 34.0 °F 89% 29.83 in 10.0 mi West 6.9 mph - 0.00 in Rain Light Rain
2:53 AM 37.0 °F 31.0 °F 34.0 °F 89% 29.86 in 10.0 mi WSW 8.1 mph - 0.00 in   Overcast
3:53 AM 39.0 °F 31.0 °F 33.1 °F 79% 29.87 in 10.0 mi WSW 13.8 mph - N/A   Overcast
4:53 AM 39.0 °F 31.0 °F 33.1 °F 79% 29.89 in 10.0 mi WSW 13.8 mph - 0.01 in   Overcast
5:53 AM 37.9 °F 30.5 °F 32.0 °F 79% 29.92 in 10.0 mi WSW 11.5 mph - N/A   Mostly Cloudy
6:53 AM 37.0 °F 29.8 °F 30.9 °F 79% 29.95 in 10.0 mi WSW 10.4 mph - N/A   Clear
7:53 AM 36.0 °F 28.5 °F 30.0 °F 79% 29.98 in 10.0 mi SW 10.4 mph - N/A   Mostly Cloudy
8:53 AM 35.1 °F 32.2 °F 30.9 °F 85% 30.02 in 10.0 mi SSW 3.5 mph - N/A   Partly Cloudy
9:53 AM 42.1 °F 37.1 °F 33.1 °F 70% 30.06 in 10.0 mi WSW 8.1 mph - N/A   Clear
10:53 AM 44.1 °F 39.5 °F 34.0 °F 68% 30.08 in 10.0 mi WSW 8.1 mph - N/A   Clear
11:53 AM 46.0 °F 40.6 °F 33.1 °F 61% 30.08 in 10.0 mi WSW 11.5 mph - N/A   Clear
12:53 PM 48.0 °F - 33.1 °F 56% 30.09 in 10.0 mi SW 13.8 mph - N/A   Clear
1:53 PM 48.0 °F - 33.1 °F 56% 30.12 in 10.0 mi WSW 15.0 mph - N/A   Clear
2:53 PM 46.0 °F 41.0 °F 30.9 °F 56% 30.14 in 10.0 mi West 10.4 mph - N/A   Clear
3:53 PM 43.0 °F 38.2 °F 30.9 °F 62% 30.15 in 10.0 mi WSW 8.1 mph - N/A   Clear
4:53 PM 37.9 °F 32.7 °F 33.1 °F 83% 30.16 in 10.0 mi SSW 6.9 mph - N/A   Clear
5:53 PM 37.9 °F 30.9 °F 32.0 °F 79% 30.18 in 10.0 mi SW 10.4 mph - N/A   Clear
6:53 PM 37.0 °F 30.4 °F 30.9 °F 79% 30.18 in 10.0 mi South 9.2 mph - N/A   Clear
7:53 PM 33.1 °F 30.0 °F 28.9 °F 85% 30.18 in 10.0 mi East 3.5 mph - N/A   Clear
8:53 PM 33.1 °F 30.0 °F 30.0 °F 89% 30.18 in 10.0 mi ENE 3.5 mph - N/A   Clear
9:53 PM 30.0 °F - 28.0 °F 92% 30.19 in 10.0 mi Calm Calm - N/A   Clear
10:53 PM 28.9 °F - 28.0 °F 96% 30.18 in 10.0 mi Calm Calm - N/A   Clear
11:53 PM 30.0 °F - 28.0 °F 92% 30.19 in 10.0 mi Calm Calm - N/A   Clear